Theta_e
324 326 329 324 307 305 301 302 307 307 309 316 319 316 317 320 316 313 339 341 342 341 345 347 346 346 346 349 350 349 348 346 345 343 341 340 338 336 336 336 338 335 334 333 335 337 335 334 334
319 325 326 317 303 299 301 305 303 308 311 316 320 318 320 318 330 331 337 343 343 340 345 345 344 346 346 346 349 349 348 347 345 343 341 339 338 337 335 335 337 334 334 334 334 336 334 333 332
320 324 316 311 305 299 300 304 306 309 313 313 312 316 318 323 331 333 339 342 342 340 344 344 344 346 345 346 346 348 348 348 346 343 341 339 338 337 338 336 335 335 334 335 336 335 333 331 331
322 322 317 306 303 305 305 308 310 309 312 314 313 311 323 331 328 333 339 343 341 340 344 342 344 346 345 345 345 347 348 347 346 345 342 339 338 339 339 337 337 335 334 335 336 333 333 330 330
323 317 307 305 305 307 310 309 310 309 311 312 314 311 316 326 326 331 339 342 341 340 343 344 343 345 345 344 345 346 347 346 345 345 343 341 340 339 338 338 335 334 333 333 332 332 332 329 327
314 315 304 301 304 308 309 307 311 309 311 313 312 315 318 324 314 321 335 340 342 341 342 343 338 340 342 343 344 345 346 345 344 343 342 341 339 339 339 337 337 336 334 333 331 332 330 328 325
311 309 304 304 304 306 304 306 307 306 308 311 314 309 317 311 310 317 331 337 341 342 341 341 343 341 334 338 340 342 343 343 343 342 341 339 337 337 337 336 337 335 333 332 332 330 328 326 324
314 311 304 305 302 303 304 303 307 305 305 312 312 308 305 305 306 311 322 332 335 339 340 339 341 341 342 341 333 336 338 338 340 338 336 334 333 333 334 332 334 335 334 334 332 330 328 326 324
316 304 301 303 300 301 303 299 306 307 305 309 310 306 303 303 304 306 309 316 328 334 338 339 339 340 339 339 335 332 332 333 333 333 330 330 334 333 331 328 331 335 334 334 332 330 328 327 326
308 302 300 297 297 296 297 298 298 297 297 298 301 302 300 300 300 301 304 305 308 319 333 337 339 339 339 336 336 335 339 342 340 339 337 336 335 334 330 326 327 331 330 332 332 331 328 324 319
302 300 299 294 294 292 292 292 294 292 291 295 293 294 296 297 298 298 300 302 304 308 317 334 336 339 339 338 335 338 335 341 341 340 339 336 335 335 333 332 330 331 324 329 329 328 325 321 320
294 294 295 292 291 290 289 292 291 292 293 295 295 295 296 295 296 296 297 299 302 305 308 322 335 336 336 337 337 336 335 334 340 340 340 337 336 333 332 331 332 331 330 328 327 325 324 322 322
291 290 290 290 290 290 292 291 290 292 295 295 295 296 296 297 298 299 299 300 302 302 304 308 321 334 335 335 336 336 336 332 334 337 339 338 336 332 332 331 332 330 329 328 325 324 323 323 322
291 290 289 290 290 290 289 291 292 293 294 294 294 295 296 297 299 300 301 301 303 305 304 307 311 321 334 334 334 333 334 335 334 337 338 338 336 335 331 331 330 330 329 327 326 324 322 322 321
289 287 289 289 289 289 291 289 289 293 293 292 293 295 296 297 298 298 300 302 305 308 313 314 319 324 328 332 333 333 333 334 333 335 337 338 337 336 333 331 330 330 329 326 326 325 324 322 320
288 289 287 288 288 289 290 288 290 293 292 291 293 294 295 296 296 298 300 301 302 305 308 312 312 314 313 313 331 331 331 331 332 332 334 336 336 336 332 331 329 330 329 326 324 324 322 322 320
289 286 285 287 287 287 287 287 292 293 291 291 292 293 293 294 296 297 298 299 301 301 302 308 311 310 311 312 311 329 330 331 330 331 332 334 334 336 335 332 332 329 328 325 324 323 322 321 321
282 283 284 284 288 286 285 287 291 292 290 291 292 293 293 293 295 297 298 299 299 300 301 302 303 305 309 310 310 310 326 329 330 330 329 331 332 334 334 332 332 328 326 325 323 322 323 322 322
283 283 283 287 287 283 286 287 289 291 290 290 291 292 292 293 295 297 298 298 298 298 298 299 300 302 305 306 305 305 306 307 319 329 329 329 330 330 332 331 331 328 324 324 323 322 321 321 323
283 283 284 286 285 283 285 285 289 291 290 290 290 291 292 292 294 296 297 297 297 297 298 298 299 300 303 304 305 305 307 308 308 307 328 329 329 329 329 330 330 328 326 324 322 321 320 320 322
284 282 281 280 283 286 283 285 287 289 290 291 292 293 293 292 292 294 295 295 296 296 297 297 298 300 300 302 303 303 305 305 304 306 307 311 325 329 328 329 328 328 326 323 322 321 320 318 321
280 283 282 281 280 281 284 281 288 289 288 290 291 292 292 292 293 294 294 295 295 296 298 298 298 299 299 301 301 298 298 298 302 306 308 310 310 318 328 328 328 328 326 323 322 323 321 321 317
283 284 282 281 280 280 281 279 287 287 286 288 290 291 292 293 293 293 294 295 295 297 298 299 298 297 299 299 299 300 298 300 302 304 307 309 312 310 325 327 327 326 325 324 323 322 322 321 319
284 284 282 281 280 278 280 279 283 287 286 288 290 291 292 292 292 293 294 295 295 297 298 299 298 297 298 298 298 297 297 299 298 300 302 306 310 311 310 325 326 326 325 324 324 323 323 322 321
285 283 283 282 281 281 280 278 283 289 289 289 289 290 291 292 292 292 293 293 294 296 297 297 297 295 297 297 297 297 297 298 300 300 302 304 308 308 310 310 320 325 325 325 324 324 323 323 322
280 280 280 275 276 279 281 276 284 288 290 290 291 291 291 291 293 292 293 294 294 296 296 296 296 295 295 295 296 298 297 298 300 303 303 304 306 308 310 311 310 317 326 325 324 324 324 324 323
280 281 281 277 275 273 279 283 288 289 288 288 289 290 291 291 291 292 293 294 294 294 295 295 295 295 295 295 295 296 297 297 298 301 303 304 305 308 310 311 311 311 323 324 324 323 323 323 323
280 283 278 279 274 274 279 281 282 287 288 288 289 289 289 291 291 292 293 293 293 294 295 295 295 294 295 296 295 295 296 299 300 300 301 302 305 307 310 311 312 312 314 323 323 322 323 323 323
278 278 277 277 277 274 273 280 287 287 287 286 287 289 290 291 291 292 292 293 293 294 294 294 295 294 295 295 295 295 296 299 299 299 301 302 304 306 310 311 311 313 312 321 321 321 321 321 321
280 280 280 278 275 276 274 276 289 288 287 286 289 290 291 291 292 292 291 292 292 292 291 293 293 293 293 294 294 295 296 297 298 299 299 301 300 302 308 309 312 311 312 319 319 319 320 319 318
Wind_Speed
19 13 6 7 5 4 3 2 5 3 7 11 8 6 12 11 12 6 5 3 6 7 14 17 14 14 13 13 13 16 16 17 17 16 14 12 10 9 9 8 7 5 5 6 7 9 7 7 7
14 12 6 4 6 5 4 6 3 1 5 10 5 9 6 5 17 7 10 8 6 6 11 16 14 14 13 13 11 15 15 16 17 16 14 13 12 11 10 9 8 7 8 8 7 9 6 6 5
11 7 5 5 4 4 4 3 5 5 5 6 8 10 5 12 19 11 14 7 4 6 8 12 14 14 15 14 13 14 14 15 16 16 16 14 14 13 11 9 9 8 8 8 7 8 6 4 4
6 5 5 7 7 1 7 12 14 10 6 7 9 8 9 14 10 14 14 6 4 5 8 15 14 14 14 14 14 14 15 15 16 15 16 16 14 12 11 10 10 8 8 8 8 7 6 4 4
5 4 7 6 6 4 5 13 11 11 10 10 7 8 2 17 19 20 15 7 4 5 8 12 13 12 13 13 14 15 15 16 17 16 16 15 14 13 12 11 10 10 9 8 9 8 6 4 3
6 4 8 9 7 3 6 13 10 9 10 9 16 16 5 17 24 21 18 12 6 6 7 4 10 8 10 12 13 13 15 16 16 16 14 15 14 14 13 12 12 13 11 10 10 7 7 5 4
9 7 12 13 11 10 7 12 8 10 12 10 13 13 8 24 24 22 15 14 10 8 7 6 10 13 7 8 10 10 13 14 16 15 14 13 14 14 13 13 13 12 11 12 9 8 8 7 6
7 5 13 8 8 4 7 12 7 11 9 14 14 10 12 22 26 21 16 10 11 12 10 9 8 11 15 14 11 9 10 12 13 12 10 8 7 8 9 8 9 13 12 12 11 10 9 8 8
3 6 8 5 4 6 9 11 9 12 17 12 10 7 18 23 23 19 17 18 10 5 12 11 11 10 11 13 13 12 11 10 8 11 11 10 10 12 12 11 9 10 10 10 11 11 10 7 6
4 5 7 6 6 8 13 12 16 12 17 16 16 19 22 24 22 20 18 16 17 19 7 10 12 13 11 9 11 14 14 12 11 11 12 10 12 11 12 11 7 10 9 10 11 11 9 7 8
4 4 5 5 7 10 11 12 13 12 11 16 18 21 22 21 19 19 20 19 17 16 16 7 11 12 15 11 7 6 7 8 10 15 14 11 10 8 8 6 7 8 9 8 10 10 9 11 8
6 6 4 3 7 5 10 11 11 7 9 13 17 18 18 18 17 18 19 19 19 18 17 12 10 13 14 9 9 8 8 9 9 12 16 11 8 7 7 6 8 9 8 10 9 7 9 11 10
9 4 5 5 6 3 12 6 4 5 10 12 12 14 16 17 18 17 17 17 18 18 18 18 11 10 13 13 10 11 11 10 11 11 14 11 10 7 7 8 8 8 8 8 9 8 8 9 9
4 4 2 4 7 4 12 8 6 8 10 12 12 13 15 16 18 16 17 18 19 17 17 17 18 11 13 14 13 11 10 12 11 10 11 16 11 10 9 9 8 9 8 8 8 8 8 7 8
3 2 3 3 9 4 14 6 1 8 11 12 11 10 13 15 16 16 17 18 20 17 18 20 20 22 12 16 15 11 11 14 11 11 14 16 16 14 12 10 8 9 8 10 9 9 8 7 8
1 3 4 5 8 5 11 3 2 6 10 12 11 10 12 13 15 15 15 15 17 18 19 15 14 17 14 18 15 10 10 11 13 11 13 16 18 18 13 10 9 9 9 8 8 8 8 8 8
2 4 7 4 4 8 7 11 3 6 7 10 8 9 10 12 12 12 14 14 15 16 18 18 17 15 15 14 15 14 13 12 12 12 12 18 16 19 14 12 11 11 9 9 8 8 9 8 8
7 6 7 8 4 9 16 17 12 7 6 8 9 10 11 12 13 13 13 14 15 15 16 16 14 16 12 9 11 12 11 10 11 12 14 19 16 19 16 13 13 10 10 9 9 10 9 8 8
4 7 11 10 5 14 7 15 15 8 7 7 8 10 11 13 12 13 13 14 16 17 18 16 17 17 10 8 8 10 13 11 17 12 18 19 18 18 18 13 14 11 12 12 12 11 12 9 8
4 9 8 8 4 8 13 22 18 11 8 6 9 11 12 14 13 13 14 16 17 18 19 18 16 16 11 6 5 4 9 10 12 14 13 18 20 21 16 18 15 16 13 15 14 13 10 9 8
3 4 10 9 16 9 12 14 11 10 7 7 9 9 11 13 15 15 15 17 17 19 18 17 18 16 14 11 6 7 8 11 12 13 13 17 17 22 21 19 17 17 15 13 15 14 15 10 10
3 2 9 13 8 4 5 7 8 9 8 7 6 7 11 13 14 15 17 17 17 17 15 17 16 17 14 14 9 6 7 12 10 12 12 14 17 26 22 22 20 18 14 15 15 14 14 13 12
4 12 9 7 6 7 7 6 2 8 7 4 6 8 10 12 14 17 17 18 18 15 14 14 17 17 16 15 12 8 8 8 7 10 15 16 15 12 19 18 22 20 15 16 17 17 17 14 12
14 12 6 4 4 4 7 4 10 4 3 5 6 9 11 14 16 18 18 19 18 15 14 14 17 17 15 15 15 14 13 12 11 12 12 12 12 9 15 20 17 20 19 18 17 17 19 17 15
10 7 3 2 3 4 7 7 13 9 6 9 10 11 14 15 17 19 20 19 19 18 17 15 17 19 16 16 16 15 14 13 14 15 11 14 13 7 12 15 15 17 20 20 19 19 18 18 16
5 5 4 5 5 10 6 8 5 0 9 11 12 11 13 17 17 19 20 18 18 18 19 19 18 19 17 17 17 13 14 10 10 11 12 12 11 10 12 13 15 23 19 21 20 16 16 18 16
4 1 5 5 2 4 6 8 16 4 1 2 6 11 18 20 19 21 20 19 18 18 19 19 20 18 16 17 16 16 14 14 12 14 11 11 14 13 16 15 16 14 19 22 22 16 19 18 18
3 5 3 2 5 7 7 10 11 9 8 7 11 17 20 21 20 19 18 19 17 17 17 19 20 19 17 18 15 14 15 14 14 12 12 12 17 18 15 17 15 17 19 20 22 18 19 19 15
4 3 2 3 2 4 8 6 4 8 6 6 13 16 21 21 20 18 17 17 16 16 17 18 18 19 18 16 16 16 14 14 14 12 13 12 15 18 16 14 15 16 22 19 20 20 19 20 18
2 4 7 4 4 4 4 14 9 6 5 8 18 19 20 20 21 19 19 17 17 18 18 18 17 16 14 16 16 16 15 13 13 12 13 13 12 18 15 13 14 13 16 16 16 18 18 20 19
Wind_Direction
318 321 296 255 244 229 259 91 323 329 5 351 335 320 323 305 324 7 1 305 342 182 161 171 173 177 182 183 176 170 171 170 166 160 162 167 167 168 154 144 130 136 141 151 113 113 104 95 86
314 314 243 282 256 247 96 33 322 350 359 343 352 336 317 317 35 28 19 356 339 183 162 180 170 177 183 188 188 179 180 175 173 169 166 177 177 174 168 186 137 159 161 170 166 126 104 86 74
288 278 281 290 290 304 9 94 358 347 285 341 334 326 350 5 25 2 355 341 302 186 188 182 164 180 183 188 195 188 190 185 179 176 171 178 179 181 179 178 161 179 170 169 175 128 123 91 81
309 209 214 256 281 319 333 4 358 332 312 341 360 302 87 44 17 359 350 336 286 198 209 141 171 183 191 193 195 200 196 195 187 180 177 180 184 180 177 186 166 170 180 177 172 152 143 125 106
238 257 268 256 296 331 1 20 334 338 332 335 331 327 35 49 20 3 358 342 291 227 210 150 165 188 198 200 205 207 203 205 192 184 183 182 186 184 177 182 184 177 183 188 185 174 160 164 150
243 284 260 263 298 87 75 2 356 352 340 24 357 329 44 44 8 356 347 339 312 253 218 155 170 183 210 209 209 218 213 211 198 192 189 187 185 188 189 186 185 184 187 191 194 179 180 189 189
245 236 270 284 285 283 37 353 356 340 327 9 332 307 296 13 354 341 343 336 320 290 227 217 183 199 210 228 221 219 224 217 202 195 189 196 194 187 188 196 187 199 194 199 188 192 195 204 209
273 257 265 266 280 327 32 342 341 333 312 322 352 342 335 343 338 334 330 327 329 314 270 222 202 204 213 217 217 229 220 209 198 194 180 200 203 201 195 197 200 200 202 179 187 198 205 212 218
280 245 255 332 11 347 1 336 316 329 289 320 312 2 342 331 328 331 335 333 318 278 297 266 234 213 215 222 209 211 225 206 204 192 184 179 210 207 208 211 191 204 177 184 193 202 210 218 228
289 249 37 33 17 330 323 326 318 320 318 305 351 335 333 330 328 325 325 328 327 327 255 268 255 233 225 222 224 205 222 218 208 208 198 196 213 214 215 207 201 197 190 191 200 206 204 209 238
15 26 107 54 17 334 324 315 334 317 322 2 332 326 328 325 325 322 321 318 319 316 312 254 267 262 235 227 207 219 210 215 216 215 213 199 213 215 197 206 199 212 202 213 207 208 217 218 224
111 62 28 33 7 347 340 315 319 344 345 347 331 332 333 334 331 325 320 315 310 313 312 314 260 257 254 236 213 226 212 215 215 217 212 206 207 215 194 212 196 206 207 221 215 212 213 217 220
79 90 65 40 347 312 331 316 343 358 346 332 336 338 344 345 344 336 323 321 321 312 312 312 298 249 246 249 230 222 230 208 216 222 210 209 208 199 205 215 214 204 216 206 225 218 214 221 224
80 89 76 11 13 231 342 310 293 12 347 343 347 348 351 352 351 348 349 339 326 319 313 314 306 282 249 249 237 220 224 236 211 214 221 209 205 205 202 214 217 214 213 216 218 220 222 222 221
102 125 270 355 356 345 328 224 348 350 345 337 347 353 349 359 356 1 357 348 340 340 354 352 351 350 302 253 244 240 216 232 235 205 217 213 212 204 201 209 217 218 213 220 216 226 224 226 225
165 257 273 88 355 8 340 79 119 345 338 339 343 345 347 351 352 354 357 359 2 351 329 325 344 348 347 3 276 238 249 221 234 213 209 219 216 215 202 209 207 218 213 214 219 214 221 225 230
94 358 344 324 63 335 336 307 305 334 325 321 328 328 333 336 340 349 348 351 350 351 355 341 328 326 338 346 346 271 234 241 221 223 219 213 216 221 211 206 204 205 216 212 214 218 217 217 223
344 343 331 308 353 324 294 263 301 284 294 321 326 322 322 331 329 332 337 342 345 341 343 345 347 340 331 329 345 344 312 249 236 219 221 222 215 219 218 215 205 195 213 206 207 220 214 222 223
295 303 303 311 352 315 280 284 296 272 266 308 328 335 331 324 320 319 325 329 330 329 334 335 335 336 345 336 348 340 320 323 314 230 218 218 221 218 212 215 207 195 208 205 205 210 217 212 224
241 301 342 305 39 311 295 284 280 237 257 291 323 334 329 326 333 328 322 321 323 322 325 319 321 325 334 337 338 318 310 311 306 326 244 218 217 218 215 211 212 201 209 201 203 204 207 214 198
199 291 330 303 316 264 292 260 196 218 242 272 289 318 325 334 327 329 326 325 324 322 320 316 314 314 315 325 315 327 326 304 313 322 308 325 281 213 206 213 209 210 207 197 200 198 203 203 206
281 70 315 300 313 325 0 295 225 198 235 255 293 326 322 335 328 324 325 320 321 320 321 318 311 308 308 307 296 309 311 309 320 306 298 294 288 290 209 206 210 210 205 199 198 196 197 200 200
315 334 305 292 275 323 169 262 168 175 243 276 321 316 327 324 326 325 323 325 319 317 320 314 312 304 304 302 291 277 267 276 284 283 293 281 282 297 280 216 216 208 204 202 202 198 198 198 201
300 290 239 245 253 241 109 353 283 214 274 288 309 321 325 325 324 319 325 323 319 319 317 313 307 301 300 301 296 286 276 263 275 284 277 287 278 313 316 251 221 210 201 198 201 204 199 198 199
323 296 289 254 230 286 148 280 255 280 277 280 298 307 314 323 312 323 324 322 320 318 317 311 312 304 306 300 296 292 285 279 265 268 267 283 270 295 307 312 297 226 204 202 197 200 201 201 201
349 332 333 300 302 310 202 241 258 316 281 274 285 297 310 303 316 319 320 321 317 320 318 318 312 304 305 300 299 295 296 281 271 263 274 272 279 293 286 287 281 290 213 203 202 198 198 200 203
83 278 353 303 63 279 245 252 263 261 327 315 294 297 325 323 318 314 320 320 320 322 321 316 310 304 302 303 301 296 296 287 274 272 273 281 293 281 268 272 286 307 254 212 201 198 196 198 199
307 105 227 183 304 293 273 286 260 280 318 326 332 328 318 315 313 319 319 319 318 319 320 319 314 305 306 307 296 296 300 298 288 288 284 287 271 274 264 266 279 280 299 222 205 197 197 197 198
153 196 212 300 244 281 306 275 27 314 303 302 321 315 320 317 316 318 318 318 314 318 324 321 311 312 313 308 301 297 298 300 297 283 277 270 276 268 262 269 271 283 311 214 210 200 194 195 195
328 248 204 241 175 246 306 269 287 292 285 301 315 319 326 317 319 322 320 319 321 330 326 318 315 311 311 308 303 298 299 299 299 295 297 294 295 286 277 280 273 289 285 242 211 205 197 194 193